Starlink 33939

operational
NORAD ID: 63702 Int'l Des: 2025-087 Owner: SPXS Country: US Constellation: starlink
LEOCIRCULAR

Starlink 33939について

説明を読み込み中...

リアルタイム位置

3D地球を読み込み中...

次回通過

高度履歴

Altitude vs Time

uPlot chart will show altitude changes over time

軌道要素

1 63702U 25087F 26033.26004608 .00018703 00000-0 64201-3 0 9995
2 63702 53.1585 24.2331 0001301 105.1657 254.9488 15.30200379 43773
Epoch: Feb 2, 2026 • Age: 22 hours

現在のステータス

高度 494.5 km
速度 7.62 km/s
衛星直下点 -53.30°S, 97.99°E
打ち上げ日 Apr 28, 2025
運用期間 0.7 years
タイプ internet

技術仕様

分類 Payload
質量 575.00 kg
乾燥質量 530.00 kg
総質量 575.00 kg
長さ 0.30 m
直径 4.10 m
スパン 29.00 m
形状 Box + pan
製造者 SPXS
バスタイプ Starlink V2MO
フェーズステータス In Orbit
所有者/国 SPXS/US

大規模コンステレーション

Loading constellations...